• In Czech Republic
  • List of Countries
  • For 7 days
  • Water Temperature
  • Satellite Maps
  • Weather Map
  • Weather Widgets
  • user-avatar
    Login

    Hourly Weather Apizaco

    Today, 22 October, Monday

    Time Temperature Precipitation Wind Pressure Humidity
    00:00 +13°C° 0.1 mm 2 mps 570 mmHg 93%
    01:00 +13°C° 0.1 mm 2 mps 570 mmHg 93%
    02:00 +13°C° 0.1 mm 2 mps 570 mmHg 94%
    03:00 +12°C° 0 mm 2 mps 570 mmHg 94%
    04:00 +12°C° 0 mm 2 mps 570 mmHg 94%
    05:00 +12°C° 0 mm 2 mps 570 mmHg 94%
    06:00 +13°C° 0 mm 2 mps 570 mmHg 88%
    07:00 +14°C° 0 mm 2 mps 571 mmHg 81%
    08:00 +15°C° 0 mm 2 mps 572 mmHg 75%
    09:00 +17°C° 0 mm 3 mps 573 mmHg 67%
    10:00 +18°C° 0 mm 3 mps 573 mmHg 59%
    11:00 +20°C° 0 mm 3 mps 574 mmHg 51%
    12:00 +20°C° 0 mm 3 mps 573 mmHg 52%
    13:00 +20°C° 0 mm 3 mps 573 mmHg 53%
    14:00 +20°C° 0 mm 4 mps 572 mmHg 54%
    15:00 +19°C° 0.1 mm 3 mps 571 mmHg 61%
    16:00 +17°C° 0.1 mm 3 mps 571 mmHg 69%
    17:00 +16°C° 0.1 mm 2 mps 570 mmHg 76%
    18:00 +15°C° 0 mm 2 mps 571 mmHg 80%
    19:00 +14°C° 0 mm 2 mps 571 mmHg 84%
    20:00 +14°C° 0 mm 1 mps 571 mmHg 87%
    21:00 +13°C° 0 mm 1 mps 571 mmHg 89%
    22:00 +13°C° 0 mm 1 mps 571 mmHg 90%
    23:00 +13°C° 0 mm 1 mps 571 mmHg 91%

    Tomorrow, 23 October, Tuesday

    Time Temperature Precipitation Wind Pressure Humidity
    00:00 +13°C° 0 mm 1 mps 570 mmHg 92%
    01:00 +13°C° 0 mm 1 mps 570 mmHg 92%
    02:00 +12°C° 0 mm 1 mps 570 mmHg 93%
    03:00 +12°C° 0 mm 1 mps 570 mmHg 93%
    04:00 +12°C° 0 mm 1 mps 570 mmHg 93%
    05:00 +11°C° 0 mm 1 mps 570 mmHg 94%
    06:00 +13°C° 0 mm 1 mps 571 mmHg 87%
    07:00 +14°C° 0 mm 1 mps 572 mmHg 81%
    08:00 +16°C° 0 mm 2 mps 572 mmHg 74%
    09:00 +17°C° 0 mm 2 mps 573 mmHg 68%
    10:00 +19°C° 0 mm 2 mps 573 mmHg 62%
    11:00 +20°C° 0 mm 3 mps 573 mmHg 56%
    12:00 +20°C° 0 mm 3 mps 573 mmHg 56%
    13:00 +20°C° 0 mm 3 mps 572 mmHg 55%
    14:00 +21°C° 0 mm 3 mps 572 mmHg 55%
    15:00 +19°C° 0 mm 3 mps 571 mmHg 62%
    16:00 +18°C° 0 mm 3 mps 571 mmHg 69%
    17:00 +16°C° 0 mm 2 mps 570 mmHg 76%
    18:00 +15°C° 0 mm 2 mps 570 mmHg 80%
    19:00 +14°C° 0 mm 1 mps 571 mmHg 84%
    20:00 +13°C° 0 mm 1 mps 571 mmHg 89%
    21:00 +13°C° 0 mm 1 mps 571 mmHg 89%
    22:00 +13°C° 0 mm 1 mps 570 mmHg 89%
    23:00 +12°C° 0 mm 1 mps 570 mmHg 89%

    Day after tomorrow, 24 October, Wednesday

    Time Temperature Precipitation Wind Pressure Humidity
    00:00 +12°C° 0 mm 1 mps 570 mmHg 90%
    01:00 +12°C° 0 mm 1 mps 569 mmHg 90%
    02:00 +11°C° 0 mm 1 mps 569 mmHg 90%
    03:00 +11°C° 0 mm 1 mps 569 mmHg 90%
    04:00 +11°C° 0 mm 1 mps 568 mmHg 90%
    05:00 +11°C° 0 mm 1 mps 568 mmHg 90%
    06:00 +13°C° 0 mm 1 mps 570 mmHg 83%
    07:00 +15°C° 0 mm 1 mps 571 mmHg 76%
    08:00 +18°C° 0 mm 1 mps 572 mmHg 69%
    09:00 +18°C° 0 mm 2 mps 572 mmHg 64%
    10:00 +20°C° 0 mm 2 mps 573 mmHg 58%
    11:00 +21°C° 0 mm 3 mps 573 mmHg 52%
    12:00 +21°C° 0.2 mm 3 mps 572 mmHg 53%
    13:00 +21°C° 0.2 mm 3 mps 572 mmHg 53%
    14:00 +21°C° 0.2 mm 3 mps 571 mmHg 54%
    15:00 +20°C° 0.4 mm 2 mps 571 mmHg 61%
    16:00 +18°C° 0.4 mm 2 mps 570 mmHg 69%
    17:00 +18°C° 0.4 mm 1 mps 569 mmHg 77%
    18:00 +16°C° 0.4 mm 1 mps 570 mmHg 80%
    19:00 +15°C° 0.4 mm 1 mps 570 mmHg 83%
    20:00 +15°C° 0.4 mm 1 mps 570 mmHg 86%
    21:00 +14°C° 0.1 mm 1 mps 570 mmHg 87%
    22:00 +14°C° 0.1 mm 1 mps 570 mmHg 87%
    23:00 +14°C° 0.1 mm 1 mps 570 mmHg 88%

    25 October, Thursday

    Time Temperature Precipitation Wind Pressure Humidity
    00:00 +13°C° 0 mm 1 mps 569 mmHg 88%
    01:00 +13°C° 0 mm 1 mps 569 mmHg 89%
    02:00 +13°C° 0 mm 1 mps 568 mmHg 89%
    03:00 +12°C° 0 mm 1 mps 568 mmHg 89%
    04:00 +12°C° 0 mm 1 mps 568 mmHg 90%
    05:00 +12°C° 0 mm 1 mps 568 mmHg 90%
    06:00 +14°C° 0 mm 1 mps 570 mmHg 84%
    07:00 +15°C° 0 mm 1 mps 571 mmHg 78%
    08:00 +18°C° 0 mm 1 mps 572 mmHg 71%
    09:00 +18°C° 0 mm 2 mps 572 mmHg 67%
    10:00 +19°C° 0 mm 2 mps 572 mmHg 62%
    11:00 +20°C° 0 mm 3 mps 573 mmHg 57%
    12:00 +20°C° 0.2 mm 3 mps 572 mmHg 59%
    13:00 +20°C° 0.2 mm 3 mps 571 mmHg 62%
    14:00 +19°C° 0.2 mm 3 mps 571 mmHg 64%
    15:00 +18°C° 0.4 mm 3 mps 570 mmHg 70%
    16:00 +17°C° 0.4 mm 2 mps 570 mmHg 76%
    17:00 +16°C° 0.4 mm 2 mps 570 mmHg 82%
    18:00 +15°C° 0.2 mm 2 mps 570 mmHg 84%
    19:00 +15°C° 0.2 mm 2 mps 570 mmHg 87%
    20:00 +14°C° 0.2 mm 2 mps 570 mmHg 90%
    21:00 +14°C° 0.2 mm 1 mps 570 mmHg 90%
    22:00 +14°C° 0.2 mm 1 mps 570 mmHg 90%
    23:00 +13°C° 0.2 mm 1 mps 570 mmHg 90%

    26 October, Friday

    Time Temperature Precipitation Wind Pressure Humidity
    00:00 +13°C° 0.1 mm 1 mps 570 mmHg 90%
    01:00 +13°C° 0.1 mm 1 mps 569 mmHg 90%
    02:00 +13°C° 0.1 mm 1 mps 569 mmHg 91%
    03:00 +12°C° 0 mm 1 mps 569 mmHg 91%
    04:00 +12°C° 0 mm 1 mps 569 mmHg 91%
    05:00 +11°C° 0 mm 1 mps 569 mmHg 91%
    06:00 +13°C° 0 mm 1 mps 570 mmHg 84%
    07:00 +15°C° 0 mm 1 mps 571 mmHg 77%
    08:00 +16°C° 0 mm 1 mps 572 mmHg 70%
    09:00 +18°C° 0.1 mm 1 mps 573 mmHg 65%
    10:00 +20°C° 0.1 mm 1 mps 573 mmHg 60%
    11:00 +20°C° 0.1 mm 2 mps 573 mmHg 56%
    12:00 +20°C° 0.2 mm 2 mps 572 mmHg 58%
    13:00 +20°C° 0.2 mm 2 mps 572 mmHg 60%
    14:00 +19°C° 0.2 mm 3 mps 571 mmHg 62%
    15:00 +18°C° 0.2 mm 2 mps 571 mmHg 68%
    16:00 +17°C° 0.2 mm 2 mps 571 mmHg 74%
    17:00 +16°C° 0.2 mm 2 mps 570 mmHg 80%
    18:00 +15°C° 0.1 mm 2 mps 571 mmHg 83%
    19:00 +15°C° 0.1 mm 2 mps 571 mmHg 86%
    20:00 +14°C° 0.1 mm 2 mps 571 mmHg 88%
    21:00 +14°C° 0.1 mm 2 mps 571 mmHg 90%
    22:00 +13°C° 0.1 mm 1 mps 570 mmHg 91%
    23:00 +13°C° 0.1 mm 1 mps 570 mmHg 92%

    27 October, Saturday

    Time Temperature Precipitation Wind Pressure Humidity
    00:00 +13°C° 0 mm 1 mps 570 mmHg 92%
    01:00 +13°C° 0 mm 1 mps 570 mmHg 93%
    02:00 +12°C° 0 mm 1 mps 570 mmHg 93%
    03:00 +12°C° 0 mm 1 mps 570 mmHg 93%
    04:00 +12°C° 0 mm 1 mps 570 mmHg 93%
    05:00 +12°C° 0 mm 1 mps 570 mmHg 92%
    06:00 +13°C° 0 mm 1 mps 571 mmHg 86%
    07:00 +15°C° 0 mm 1 mps 572 mmHg 80%
    08:00 +16°C° 0 mm 1 mps 573 mmHg 74%
    09:00 +17°C° 0.1 mm 2 mps 573 mmHg 69%
    10:00 +18°C° 0.1 mm 2 mps 573 mmHg 65%
    11:00 +19°C° 0.1 mm 2 mps 574 mmHg 60%
    12:00 +19°C° 0.3 mm 2 mps 573 mmHg 62%
    13:00 +19°C° 0.3 mm 2 mps 573 mmHg 64%
    14:00 +19°C° 0.3 mm 2 mps 572 mmHg 65%
    15:00 +18°C° 0.3 mm 2 mps 572 mmHg 71%
    16:00 +17°C° 0.3 mm 2 mps 572 mmHg 77%
    17:00 +16°C° 0.3 mm 2 mps 571 mmHg 83%
    18:00 +15°C° 0.2 mm 2 mps 571 mmHg 86%
    19:00 +14°C° 0.2 mm 2 mps 571 mmHg 88%
    20:00 +13°C° 0.2 mm 2 mps 572 mmHg 91%
    21:00 +13°C° 0 mm 2 mps 571 mmHg 91%
    22:00 +13°C° 0 mm 2 mps 571 mmHg 92%
    23:00 +13°C° 0 mm 2 mps 571 mmHg 92%

    28 October, Sunday

    Time Temperature Precipitation Wind Pressure Humidity
    00:00 +12°C° 0 mm 2 mps 571 mmHg 92%
    01:00 +12°C° 0 mm 1 mps 570 mmHg 92%
    02:00 +12°C° 0 mm 1 mps 570 mmHg 93%
    03:00 +12°C° 0 mm 1 mps 570 mmHg 93%
    04:00 +11°C° 0 mm 1 mps 570 mmHg 93%
    05:00 +11°C° 0 mm 1 mps 570 mmHg 93%
    06:00 +13°C° 0 mm 2 mps 572 mmHg 88%
    07:00 +14°C° 0 mm 2 mps 573 mmHg 82%
    08:00 +15°C° 0 mm 2 mps 574 mmHg 77%
    09:00 +16°C° 0 mm 2 mps 574 mmHg 71%
    10:00 +18°C° 0 mm 2 mps 574 mmHg 65%
    11:00 +19°C° 0 mm 2 mps 575 mmHg 59%
    12:00 +19°C° 0.1 mm 2 mps 574 mmHg 61%
    13:00 +19°C° 0.1 mm 2 mps 573 mmHg 62%
    14:00 +18°C° 0.1 mm 2 mps 573 mmHg 64%
    15:00 +17°C° 0.1 mm 3 mps 573 mmHg 69%
    16:00 +16°C° 0.1 mm 3 mps 572 mmHg 74%
    17:00 +14°C° 0.1 mm 3 mps 572 mmHg 80%
    18:00 +14°C° 0 mm 2 mps 572 mmHg 83%
    19:00 +13°C° 0 mm 2 mps 572 mmHg 87%
    20:00 +12°C° 0 mm 2 mps 572 mmHg 91%
    21:00 +12°C° 0 mm 2 mps 572 mmHg 91%
    22:00 +12°C° 0 mm 2 mps 572 mmHg 91%
    23:00 +10°C° 0 mm 2 mps 571 mmHg 91%
    Show more